Toledo Express Airport
KTOL : now visible

Airfield :











YOU CAN JOIN US ON...

 
LOGIN :

Register | Disclaimer

   EN    FR    IT 

 









Legend :    VFR   Marginal VFR   IFR   Intensive IFR   Very Intensive IFR
Visi :
Ceiling :
>= 8 km
>= 3000ft
5 to 8 km
1000 to 3000 ft
1500m to 5 km
500 to 1000 ft
800 to 1500m
200 to 500 ft
< 800m
< 200 ft
Symbols :   Thunderstorms  Fog  Heavy snow  Heavy precipitations  Wind > 20 kt






- Airport Elevation : 683 ft
- IATA code : TOL


KTOL - Toledo Express

CURRENT METAR :
  • 230152Z 21004KT 10SM CLR 04/M07 A3007 RMK AO2 SLP187 T00391067

EXPIRED METARs :
  • 230052Z 26005KT 10SM CLR 07/M08 A3006 RMK AO2 SLP183 T00721078
  • 222352Z 28011KT 10SM CLR 09/M08 A3004 RMK AO2 SLP179 T00941078 10111 20083 53001

TAF KTOL
Valid from the 23 at 00:00 until the 24 at 00:00 UTC


222338Z 2300/2324 28010KT P6SM SKC
FM230100 23006KT P6SM SKC
FM231700 23012G20KT P6SM SCT110
KZOB FIR / North America



MET'MAP, your aeronautical weather chart ! - Copyright ORBIFLY December 2007 - Disclaimer

ORBIFLY MET'MAP TEAM :

Programming & Development : Alexandra Zaïnal
Concept & original design : Baudouin d'Aumeries
Assistance for programming : Marc-Olivier Méhu
Technical & hardware support : Manuel Goepfert

Contact : metmap@orbifly.com




SOURCES & CREDITS :

   NOAA       Earth
Advisory